Other Surface Observations
Issued by NWS Charleston, SC

Home | Current Version | Previous Version | Text Only | Print | Product List | Glossary On
Versions: 1 2 3 4 5 6 7 8 9 10 11 12 13 14 15 16 17 18 19 20 21 22 23 24 25 26 27 28 29 30 31 32 33 34 35 36 37 38 39 40 41 42 43 44 45 46 47 48 49 50
000
SXUS52 KCHS 051027
OSOCHS

MARINE OBSERVATIONS
NATIONAL WEATHER SERVICE CHARLESTON SC
500 AM EST MON DEC 05 2016

...DOWNTOWN CHARLESTON AND HARBOR...

CITY           SKY/WX    TMP DP  RH WIND       PRES   REMARKS
WATERFRONT PRK   N/A     68  66  93 SW10G21   29.94S

...LAKE MOULTRIE...

CITY           SKY/WX    TMP DP  RH WIND       PRES   REMARKS
PINOPOLIS        N/A     52  52 100 NW7       29.90S

...LAKE AND SUPPLEMENTAL COASTAL OBSERVATIONS...

STATION/POSITION TIME  TEMP    WIND        PRES    WAVE   SWELL
                       AIR SEA DIR/SP/G            HT/PER HT/PER/DIR
                 (UTC) (F)     (DEG/KT/KT) (MB)    (FT/S) (FT/S/D)
FORT PULASKI     1000   65 62  250/  2/  3 1015.2
SAPELO ISLAND    1000   67     200/  4     1015.0
WINYAH BAY       0945   58     310/ 10     1014.0S
LAKE MURRAY      1020   44      60/  2/  5 1015.2
ACE BASIN NERRS  0945   67     240/  2     1014.0S


...C-MAN AND BUOY OBSERVATIONS...

STATION/POSITION TIME  TEMP    WIND        PRES    WAVE   SWELL
                       AIR SEA DIR/SP/G            HT/PER HT/PER/DIR
                 (UTC) (F)     (DEG/KT/KT) (MB)    (FT/S) (FT/S/D)
BUOY 41004       0950   75 74  210/ 19/ 23 1013.6R   8/ 7   2/140/10
BUOY 41008       0950   67 65  180/ 14/ 16 1014.1F   4/ 6   2/ 90/ 8
FOLLY BEACH CMAN 1000   65     230/ 10/ 14 1014.9F
CAPERS NS BUOY   1008   63 62  250/ 10/ 14 1014.1F
FRIPP NS BUOY    1008   65 61  230/ 12/ 17 1014.4F
5E ST. MARYS GA  1000      65                N/A     3/ 6


STATION/POSITION TIME  TEMP    WIND        PRES    WAVE   SWELL
                       AIR SEA DIR/SP/G            HT/PER HT/PER/DIR
                 (UTC) (F)     (DEG/KT/KT) (MB)    (FT/S) (FT/S/D)
FRYING PAN BUOY  1010   74 74  200/ 25/ 33 1013.1
BUOY 41025       0950   69 75  210/ 27/ 31 1013.3F   5/ 8   2/ 60/ 8
CAPE LOOKOUT NC  1000   64     210/  8/ 10 1013.0F
BUOY 41002       0950   70 73  190/ 17/ 23 1017.8F   4/10   3/ 30/10
BUOY 41010       NOT AVBL
ST AUGUSTINE FL  1000   69 68  210/  5/  6 1016.4S

$$




USA.gov is the U.S. government's official web portal to all federal, state and local government web resources and services.